Location: Carri�res
(48.9069°N, 2.1792°E)
Time: 02:55:42
(UTC+00:00)

ATLAS 3B R/B - Pass Details

Date: 17 January 2021
Orbit: 1006 x 1189 km, 63.8° (Epoch: 24 February)

Event Time Altitude Azimuth Distance (km) Brightness Sun altitude
Rises 17:28:58 0° 318° (NW) 3,854 5.9 -10.2°
Reaches altitude 10° 17:31:34 10° 317° (NW) 2,921 5.3 -10.7°
Maximum altitude 17:38:29 74° 234° (SW) 1,159 3.1 -11.7°
Drops below altitude 10° 17:45:42 10° 151° (SSE) 3,038 5.0 -12.9°
Sets 17:48:27 0° 150° (SSE) 4,017 5.6 -13.3°
